Weather History for Defiance, OH

Change the Weather History Date:

Saturday, November 6, 2010

  Actual Average Record
Temperature  
Mean Temperature 32 °F -  
Max Temperature 41 °F 50 °F 75 °F (1978)
Min Temperature 26 °F 33 °F 14 °F (1991)
Degree Days  
Heating Degree Days 32    
Moisture  
Dew Point 20 °F    
Average Humidity 59    
Maximum Humidity 78    
Minimum Humidity 41    
Precipitation  
Precipitation 0.00 in - - ()
Sea Level Pressure  
Sea Level Pressure 30.30 in    
Wind  
Wind Speed 4 mph (NNW)    
Max Wind Speed 6 mph    
Max Gust Speed -    
Visibility 10 miles    
Events      
Averages and records for this station are not official NWS values.
T = Trace of Precipitation, MM = Missing Value Source: NWS Daily Summary

Daily Weather History Graph

Daily Weather History Graph

Search for Another Location

Airport:

Trip Planner

Search our weather history database for the weather conditions in past years. The results will help you decide how hot, cold, wet, or windy it might be!

Date:

Astronomy

Nov. 06, 2010 Rise Set
Actual Time 8:15 AM EDT 6:27 PM EDT
Civil Twilight 7:46 AM EDT 6:56 PM EDT
Nautical Twilight 7:13 AM EDT 7:28 PM EDT
Astronomical Twilight 6:40 AM EDT 8:01 PM EDT
Moon 8:52 AM EDT (11/6) 6:32 PM EDT (11/6)
Length of Visible Light 11h 10m
Length of Day
10h 11m
New Moon, 0% of the Moon is Illuminated
Nov 6
New Moon
Nov 13
First Quarter
Nov 21
Full
Nov 28
Last Quarter
Dec 5
New

Hourly Weather History & Observations

Time (EDT) Temp. Windchill Dew Point Humidity Pressure Visibility Wind Dir Wind Speed Gust Speed Precip Events Conditions
12:53 AM 34.0 °F 28.8 °F 24.1 °F 67% 30.12 in 10.0 mi NNW 5.8 mph - N/A   Overcast
1:53 AM 34.0 °F 28.8 °F 19.9 °F 56% 30.14 in 10.0 mi North 5.8 mph - N/A   Overcast
2:53 AM 34.0 °F 31.0 °F 19.9 °F 56% 30.14 in 10.0 mi North 3.5 mph - N/A   Overcast
3:53 AM 33.1 °F 28.7 °F 19.9 °F 59% 30.17 in 10.0 mi NW 4.6 mph - N/A   Overcast
4:53 AM 33.1 °F - 19.0 °F 56% 30.18 in 10.0 mi Calm Calm - N/A   Overcast
5:53 AM 32.0 °F 28.7 °F 21.0 °F 64% 30.20 in 10.0 mi NNE 3.5 mph - N/A   Overcast
6:53 AM 30.9 °F - 19.9 °F 64% 30.23 in 10.0 mi Calm Calm - N/A   Mostly Cloudy
7:53 AM 28.9 °F 23.9 °F 19.9 °F 69% 30.27 in 10.0 mi NW 4.6 mph - N/A   Clear
8:53 AM 26.1 °F 21.9 °F 19.9 °F 78% 30.30 in 10.0 mi NNW 3.5 mph - N/A   Clear
9:53 AM 32.0 °F 27.5 °F 21.9 °F 66% 30.32 in 10.0 mi North 4.6 mph - N/A   Overcast
10:53 AM 34.0 °F 31.0 °F 21.0 °F 59% 30.35 in 10.0 mi North 3.5 mph - N/A   Overcast
11:53 AM 35.1 °F - 19.0 °F 52% 30.36 in 10.0 mi Calm Calm - N/A   Mostly Cloudy
12:53 PM 36.0 °F 31.1 °F 19.0 °F 50% 30.37 in 10.0 mi NNW 5.8 mph - N/A   Overcast
1:53 PM 37.0 °F - 19.0 °F 48% 30.36 in 10.0 mi Calm Calm - N/A   Overcast
2:53 PM 37.9 °F 34.4 °F 19.0 °F 47% 30.36 in 10.0 mi Variable 4.6 mph - N/A   Mostly Cloudy
4:53 PM 39.9 °F 37.8 °F 18.0 °F 41% 30.36 in 10.0 mi North 3.5 mph - N/A   Clear
5:53 PM 37.9 °F - 18.0 °F 45% 30.37 in 10.0 mi Calm Calm - N/A   Clear
6:53 PM 34.0 °F 31.0 °F 19.0 °F 54% 30.38 in 10.0 mi South 3.5 mph - N/A   Clear
7:53 PM 30.9 °F - 19.0 °F 61% 30.40 in 10.0 mi Calm Calm - N/A   Clear
8:53 PM 30.0 °F - 19.0 °F 64% 30.41 in 10.0 mi Calm Calm - N/A   Clear
9:53 PM 30.9 °F 27.5 °F 19.9 °F 64% 30.41 in 10.0 mi SSE 3.5 mph - N/A   Clear
10:53 PM 28.9 °F - 19.9 °F 69% 30.42 in 10.0 mi Calm Calm - N/A   Clear